Theta_e
297 297 297 297 297 297 297 299 301 301 302 303 305 305 305 306 306 305 304 303 304 306
299 298 298 298 298 298 299 303 304 303 302 303 306 305 307 308 309 310 311 312 308 309
299 300 300 299 299 300 301 302 303 304 304 304 306 307 306 307 309 310 310 310 309 309
299 300 301 303 303 302 303 303 303 303 303 303 304 304 302 303 307 307 306 305 304 303
302 299 298 300 303 302 300 301 305 303 302 303 303 302 302 303 304 303 301 300 299 298
301 296 296 300 303 302 301 303 305 304 303 301 301 301 302 303 303 301 300 299 298 298
298 298 300 301 303 301 301 302 303 303 301 300 299 298 299 301 300 299 300 300 299 299
302 302 301 300 299 300 300 300 301 300 300 296 296 297 297 299 300 299 298 297 298 300
300 299 298 298 299 299 300 299 299 298 296 294 295 299 301 299 302 299 296 294 295 296
299 298 298 298 299 299 299 298 297 296 294 291 292 298 298 303 298 299 294 294 293 294
299 299 298 298 298 297 298 297 297 294 294 293 294 297 297 299 297 296 295 295 294 293
299 298 298 296 295 296 296 296 296 294 293 291 290 296 296 294 292 291 292 295 296 295
299 299 296 293 292 291 292 297 298 295 293 296 289 294 295 294 291 290 291 293 295 298
298 295 291 290 289 289 291 293 293 292 292 291 291 290 294 294 290 290 291 291 292 294
Wind_Speed
5 3 3 3 3 4 3 4 6 6 6 8 7 6 6 4 4 5 5 7 4 3
7 7 5 7 5 4 5 5 7 6 6 6 6 5 6 5 7 8 6 7 5 3
7 7 6 6 7 7 7 6 6 7 7 7 7 7 8 8 9 8 7 7 9 8
7 7 8 8 9 8 6 8 7 7 7 7 8 8 7 8 9 9 8 8 7 7
8 7 7 8 8 7 7 7 9 7 6 8 9 8 8 6 6 6 7 7 7 7
7 6 6 6 7 7 7 8 8 9 8 8 7 8 7 6 6 6 6 5 5 5
5 5 5 5 7 7 7 7 7 6 6 6 7 7 7 6 6 6 6 6 5 5
5 5 5 6 6 6 6 6 6 6 6 7 6 5 6 5 4 6 7 7 6 5
6 6 6 6 7 6 6 7 6 6 6 7 5 13 10 3 2 4 4 5 6 5
6 6 6 7 6 6 6 4 5 5 6 7 7 13 13 9 0 1 3 5 5 6
6 6 7 7 7 5 3 3 2 4 5 6 6 13 14 12 6 5 6 6 6 6
6 7 6 7 7 6 2 2 1 2 5 6 7 12 13 7 5 6 7 6 7 7
6 5 4 5 6 5 3 4 3 3 5 6 7 11 12 9 4 7 6 8 8 11
5 2 4 4 3 4 6 6 6 5 5 5 5 8 10 9 4 4 5 5 7 8
Wind_Direction
351 333 316 318 322 320 308 310 305 315 323 320 311 314 319 293 286 278 276 292 298 289
351 346 338 336 326 309 307 313 327 318 313 311 310 321 336 344 349 356 352 11 10 33
344 336 339 335 334 334 333 330 331 344 344 348 350 358 358 355 359 13 19 20 28 27
345 345 346 346 347 341 343 359 2 356 351 354 358 2 3 2 24 28 22 18 21 21
351 356 355 348 354 4 356 346 8 359 360 12 14 4 10 15 17 21 22 12 23 22
357 357 346 341 343 349 352 355 4 27 29 17 10 9 1 8 12 18 19 21 25 12
346 343 334 330 349 351 337 348 355 8 2 357 355 7 8 16 12 358 347 347 337 346
331 328 326 346 348 341 346 343 349 360 360 360 5 355 338 346 348 351 349 359 3 358
339 335 339 339 337 335 332 335 350 360 4 4 352 347 1 338 3 345 352 354 352 342
322 328 332 327 325 328 312 318 346 8 10 5 356 0 12 32 221 307 326 338 344 337
321 328 324 316 313 294 273 306 321 359 3 5 355 11 18 28 36 358 327 320 323 314
329 319 334 337 334 330 319 266 118 51 27 12 355 3 19 25 7 351 332 319 304 296
300 314 334 323 350 323 346 37 89 56 17 5 6 1 18 22 8 1 335 325 326 324
334 6 11 332 355 4 31 53 46 29 342 347 354 343 358 6 4 331 316 318 328 326